Regional Weather Roundup
Issued by NWS

Home | Current Version | Previous Version | Text Only | Print | Product List | Glossary On
Versions: 1 2 3 4 5 6 7 8 9 10 11 12 13 14 15 16 17 18 19 20 21 22 23 24 25 26 27 28 29 30 31 32 33 34 35 36 37 38 39 40 41 42 43 44 45 46 47 48 49 50
535
ASUS44 KLIX 212301
RWRLA
LOUISIANA WEATHER ROUNDUP
NATIONAL WEATHER SERVICE NEW ORLEANS LA
600 PM CDT THU AUG 21 2014

NOTE: "FAIR" INDICATES FEW OR NO CLOUDS BELOW 12,000 FEET WITH NO
      SIGNIFICANT WEATHER AND/OR OBSTRUCTIONS TO VISIBILITY.
      SKY/WX - SKY CONDITION AND SIGNIFICANT WEATHER.
      TMP - AIR TEMPERATURE.    DP   - DEWPOINT TEMPERATURE.
      RH  - RELATIVE HUMIDITY.  PRES - PRESSURE.
      HX  - HEAT INDEX.         WCI  - WIND CHILL INDEX.

*  THESE STATIONS ARE NOT NWS OR FAA STATIONS AND ARE NOT UNDER
   NWS QUALITY CONTROL.

LAZ040-048-061>063-065-066-069-220000-
SOUTHEAST LOUISIANA

CITY           SKY/WX    TMP DP  RH WIND       PRES   REMARKS
N.O. AUDUBON     N/A     82  75  81 MISG        N/A
N.O. INTL ARPT CLOUDY    80  75  84 CALM      30.10F
N.O. LAKEFRONT PTSUNNY   84  74  71 W12       30.11R
N.O. DOWNTOWN* FAIR      84  72  65 SW3       30.11S
SLIDELL        MOSUNNY   89  73  59 SW7       30.09R HX  97
BATON ROUGE    CLOUDY    79  76  90 CALM      30.11R
BOOTHVILLE     MOSUNNY   88  76  67 CALM      30.11S HX  99
BELLE CHASSE   PTSUNNY   80  74  81 W5        30.10S
BOGALUSA*      FAIR      90  73  58 W7        30.11R HX  98
GALLIANO*      NOT AVBL
NEW ROADS*     FAIR      79  73  81 CALM      30.11R
GONZALES*      LGT RAIN  79  79 100 CALM      30.10F
HAMMOND*       NOT AVBL
HOUMA*         NOT AVBL
PORT FOURCHON* CLEAR     88  75  66 SW7       30.12S HX  97

$$

LAZ041-044-053-054-220000-
SOUTHWEST LOUISIANA

CITY           SKY/WX    TMP DP  RH WIND       PRES   REMARKS
LAKE CHARLES   CLOUDY    88  75  65 S8        30.08F HX  97
LAFAYETTE      CLOUDY    78  76  93 E5        30.11F
PATTERSON      CLOUDY    79  75  89 NE5         N/A
SALT POINT       N/A     83  75  77 CALM      30.11R
NEW IBERIA     CLOUDY    80  75  84 NE3       30.11S
CHENAULT AIRPK SUNNY     90  73  58 S7        30.09F HX  98

$$

LAZ027-028-220000-
CENTRAL LOUISIANA

CITY           SKY/WX    TMP DP  RH WIND       PRES   REMARKS
FORT POLK      CLOUDY    83  76  79 SE8       30.08F
ALEXANDRIA INT LGT RAIN  75  72  90 CALM      30.05F
ALEXANDRIA     LGT RAIN  75  72  90 CALM      30.10S

$$

LAZ001-002-220000-
NORTHWEST LOUISIANA

CITY           SKY/WX    TMP DP  RH WIND       PRES   REMARKS
SHREVEPORT     MOSUNNY   95  70  44 S12       30.03R HX 101
BARKSDALE AFB  MOSUNNY   95  70  44 S13       30.03S HX 101
DTN SHREVEPORT MOSUNNY   95  69  42 S10       30.02S HX 100

$$

LAZ014-016-220000-
NORTHEAST LOUISIANA

CITY           SKY/WX    TMP DP  RH WIND       PRES   REMARKS
MONROE         SUNNY     92  72  51 S7        30.07R HX  99
TALLULAH       LGT RAIN  76  72  87 N3        30.09F

$$




USA.gov is the U.S. government's official web portal to all federal, state and local government web resources and services.